Location: Bukit Nyuki
(2.5885°N, 113.7476°E)
Time: 16:45:48
(UTC+00:00)

ARIANE 5 R/B - Pass Details

Date: 18 May 2021
Orbit: 665 x 35799 km, 3.9° (Epoch: 20 June)

Event Time Altitude Azimuth Distance (km) Brightness Sun altitude
Exits shadow 21:01:57 23° 261° (W) 2,910 5.4 -17.7°
Maximum altitude 21:06:58 77° 178° (S) 925 3.3 -16.6°
Drops below altitude 10° 21:10:49 10° 91° (E) 2,093 6.4 -15.7°
Sets 21:12:36 0° 90° (E) 2,990 7.4 -15.3°
